Campo, CA

6:35 PM PST on February 21, 2017 (GMT -0800)
Campo

Weather History for KCZZ - October, 2012

Change the Weather History Date:

Tuesday, October 16, 2012

  Actual Average Record
Temperature  
Mean Temperature 68 °F 61 °F  
Max Temperature 90 °F 79 °F 95 °F (1991)
Min Temperature 46 °F 42 °F 29 °F (1966)
Degree Days  
Heating Degree Days 0 5  
Month to date heating degree days 55 62  
Since 1 July heating degree days 64 112  
Cooling Degree Days 3 1  
Month to date cooling degree days 30 23  
Year to date cooling degree days 939 834  
Growing Degree Days 17 (Base 50)    
Moisture  
Dew Point 32 °F    
Average Humidity 35    
Maximum Humidity 60    
Minimum Humidity 9    
Precipitation  
Precipitation 0.00 in 0.03 in 0.45 in (1971)
Month to date precipitation 0.32 0.36  
Year to date precipitation 7.79 11.87  
Since 1 July precipitation 1.74  
Snow  
Snow 0.00 in - - ()
Month to date snowfall 0.0  
Year to date snowfall 0.0  
Snow Depth 0.00 in    
Sea Level Pressure  
Sea Level Pressure 29.80 in    
Wind  
Wind Speed 8 mph (NE)    
Max Wind Speed 16 mph    
Max Gust Speed 21 mph    
T = Trace of Precipitation, MM = Missing Value Source: NWS Daily Summary

Daily Weather History Graph

Daily Weather History Graph

Search for Another Location

Airport or City:

Trip Planner

Search our weather history database for the weather conditions in past years. The results will help you decide how hot, cold, wet, or windy it might be!

Date:

Astronomy

Oct. 16, 2012 Rise Set
Actual Time 6:51 AM PDT 6:11 PM PDT
Civil Twilight 6:26 AM PDT 6:35 PM PDT
Nautical Twilight 5:57 AM PDT 7:04 PM PDT
Astronomical Twilight 5:29 AM PDT 7:33 PM PDT
Moon 8:11 AM PDT (10/16) 7:07 PM PDT (10/16)
Length of Visible Light 12h 09m
Length of Day
11h 20m
New Moon, 2% of the Moon is Illuminated
Oct 16
New Moon
Oct 21
First Quarter
Oct 29
Full
Nov 6
Last Quarter
Nov 13
New

Hourly Weather History & Observations

Time (PDT) Temp. Dew Point Humidity Pressure Visibility Wind Dir Wind Speed Gust Speed Precip Events Conditions
12:52 AM 50.0 °F 35.1 °F 57% 29.87 in - NE 8.1 mph - N/A   Unknown
1:52 AM 48.9 °F 34.0 °F 56% 29.86 in - NE 8.1 mph - N/A   Unknown
2:52 AM 46.9 °F 33.1 °F 59% 29.84 in - NE 8.1 mph - N/A   Unknown
3:52 AM 48.9 °F 32.0 °F 52% 29.83 in - NE 5.8 mph - N/A   Unknown
4:52 AM 50.0 °F 30.9 °F 48% 29.83 in - NE 6.9 mph - N/A   Unknown
5:52 AM 48.0 °F 33.1 °F 56% 29.84 in - ENE 6.9 mph - N/A   Unknown
6:52 AM 48.9 °F 33.1 °F 54% 29.86 in - NE 5.8 mph - N/A   Unknown
7:52 AM 55.9 °F 34.0 °F 44% 29.86 in - NE 3.5 mph - N/A   Unknown
8:52 AM 68.0 °F 39.9 °F 36% 29.85 in - Calm Calm - N/A   Unknown
9:52 AM 81.0 °F 35.1 °F 19% 29.83 in - Calm Calm - N/A   Unknown
10:52 AM 86.0 °F 30.0 °F 13% 29.81 in - East 15.0 mph 19.6 mph N/A   Unknown
11:52 AM 87.1 °F 28.0 °F 12% 29.80 in - East 10.4 mph 17.3 mph N/A   Unknown
12:52 PM 88.0 °F 26.1 °F 11% 29.78 in - East 13.8 mph 18.4 mph N/A   Unknown
1:52 PM 88.0 °F 25.0 °F 10% 29.74 in - East 8.1 mph 17.3 mph N/A   Unknown
2:52 PM 88.0 °F 27.0 °F 11% 29.73 in - East 15.0 mph - N/A   Unknown
3:52 PM 87.1 °F 23.0 °F 10% 29.73 in - ENE 10.4 mph - N/A   Unknown
4:52 PM 86.0 °F 25.0 °F 11% 29.72 in - East 11.5 mph 16.1 mph N/A   Unknown
5:52 PM 82.0 °F 27.0 °F 13% 29.73 in - NNW 5.8 mph - N/A   Unknown
6:52 PM 73.0 °F 37.0 °F 27% 29.75 in - NW 3.5 mph - N/A   Unknown
7:52 PM 64.9 °F 33.1 °F 31% 29.78 in - NNE 4.6 mph - N/A   Unknown
8:52 PM 61.0 °F 32.0 °F 34% 29.77 in - ENE 6.9 mph - N/A   Unknown
9:52 PM 57.9 °F 35.1 °F 42% 29.77 in - ENE 3.5 mph - N/A   Unknown
10:52 PM 55.0 °F 34.0 °F 45% 29.77 in - ENE 8.1 mph - N/A   Unknown
11:52 PM 52.0 °F 34.0 °F 50% 29.77 in - NNE 4.6 mph - N/A   Unknown